Time,TemperatureF,DewpointF,PressureIn,WindDirection,WindDirectionDegrees,WindSpeedMPH,WindSpeedGustMPH,Humidity,HourlyPrecipIn,Conditions,Clouds,dailyrainin,SoftwareType,DateUTC
2013-04-26 00:05:00,42.8,30.7,30.21,SSE,158,0.0,0.0,62,0.00,,,-99.99,Weather View 32 v60,2013-04-26 04:05:00,
2013-04-26 00:10:00,42.7,30.2,30.21,SSE,158,0.0,0.0,61,0.00,,,-99.99,Weather View 32 v60,2013-04-26 04:10:00,
2013-04-26 00:20:00,42.3,30.2,30.22,SSE,158,0.0,0.0,62,0.00,,,-99.99,Weather View 32 v60,2013-04-26 04:20:00,
2013-04-26 00:25:00,42.2,30.9,30.22,SSE,158,0.0,0.0,64,0.00,,,-99.99,Weather View 32 v60,2013-04-26 04:25:00,
2013-04-26 00:35:00,42.0,31.1,30.23,SSE,158,0.0,0.0,65,0.00,,,-99.99,Weather View 32 v60,2013-04-26 04:35:00,
2013-04-26 00:45:00,41.7,31.2,30.23,SSE,158,0.0,0.0,66,0.00,,,-99.99,Weather View 32 v60,2013-04-26 04:45:00,
2013-04-26 00:55:00,41.4,30.9,30.23,SSE,158,0.0,0.0,66,0.00,,,-99.99,Weather View 32 v60,2013-04-26 04:55:00,
2013-04-26 01:05:00,41.1,31.0,30.24,SSE,158,0.0,0.0,67,0.00,,,-99.99,Weather View 32 v60,2013-04-26 05:05:00,
2013-04-26 01:10:00,41.0,30.9,30.24,SSE,158,0.0,0.0,67,0.00,,,-99.99,Weather View 32 v60,2013-04-26 05:10:00,
2013-04-26 01:20:00,40.8,31.0,30.24,SSE,158,0.0,0.0,68,0.00,,,-99.99,Weather View 32 v60,2013-04-26 05:20:00,
2013-04-26 01:25:00,40.7,31.0,30.24,SE,135,0.0,0.0,68,0.00,,,-99.99,Weather View 32 v60,2013-04-26 05:25:00,
2013-04-26 01:35:00,40.5,31.1,30.24,SSE,158,0.0,0.0,69,0.00,,,-99.99,Weather View 32 v60,2013-04-26 05:35:00,
2013-04-26 01:45:00,40.3,30.9,30.24,ESE,113,0.0,1.0,69,0.00,,,-99.99,Weather View 32 v60,2013-04-26 05:45:00,
2013-04-26 01:55:00,40.1,30.7,30.24,SE,135,0.0,1.0,69,0.00,,,-99.99,Weather View 32 v60,2013-04-26 05:55:00,
2013-04-26 02:00:00,40.0,30.6,30.24,ESE,113,0.0,1.0,69,0.00,,,-99.99,Weather View 32 v60,2013-04-26 06:00:00,
2013-04-26 02:10:00,39.7,30.7,30.24,SE,135,0.0,1.0,70,0.00,,,-99.99,Weather View 32 v60,2013-04-26 06:10:00,
2013-04-26 02:15:00,39.6,30.6,30.24,SE,135,0.0,1.0,70,0.00,,,-99.99,Weather View 32 v60,2013-04-26 06:15:00,
2013-04-26 02:25:00,39.3,30.7,30.24,SE,135,0.0,1.0,71,0.00,,,-99.99,Weather View 32 v60,2013-04-26 06:25:00,
2013-04-26 02:30:00,39.2,30.6,30.24,SE,135,0.0,1.0,71,0.00,,,-99.99,Weather View 32 v60,2013-04-26 06:30:00,
2013-04-26 02:40:00,39.0,30.7,30.24,SE,135,0.0,1.0,72,0.00,,,-99.99,Weather View 32 v60,2013-04-26 06:40:00,
2013-04-26 02:50:00,38.7,30.1,30.24,SE,135,0.0,0.0,71,0.00,,,-99.99,Weather View 32 v60,2013-04-26 06:50:00,
2013-04-26 03:00:00,38.4,30.2,30.24,SE,135,0.0,0.0,72,0.00,,,-99.99,Weather View 32 v60,2013-04-26 07:00:00,
2013-04-26 03:10:00,38.2,30.3,30.25,SE,135,0.0,0.0,73,0.00,,,-99.99,Weather View 32 v60,2013-04-26 07:10:00,
2013-04-26 03:20:00,38.0,30.1,30.25,SE,135,0.0,0.0,73,0.00,,,-99.99,Weather View 32 v60,2013-04-26 07:20:00,
2013-04-26 03:25:00,37.9,30.3,30.25,SE,135,0.0,0.0,74,0.00,,,-99.99,Weather View 32 v60,2013-04-26 07:25:00,
2013-04-26 03:35:00,37.7,30.2,30.25,SE,135,0.0,0.0,74,0.00,,,-99.99,Weather View 32 v60,2013-04-26 07:35:00,
2013-04-26 03:45:00,37.5,30.3,30.26,SE,135,0.0,0.0,75,0.00,,,-99.99,Weather View 32 v60,2013-04-26 07:45:00,
2013-04-26 03:50:00,37.5,30.6,30.26,SE,135,0.0,0.0,76,0.00,,,-99.99,Weather View 32 v60,2013-04-26 07:50:00,
2013-04-26 04:00:00,37.4,30.8,30.27,SE,135,0.0,0.0,77,0.00,,,-99.99,Weather View 32 v60,2013-04-26 08:00:00,
2013-04-26 04:10:00,37.2,31.0,30.27,SE,135,0.0,0.0,78,0.00,,,-99.99,Weather View 32 v60,2013-04-26 08:10:00,
2013-04-26 04:15:00,37.1,30.9,30.27,SE,135,0.0,0.0,78,0.00,,,-99.99,Weather View 32 v60,2013-04-26 08:15:00,
2013-04-26 04:25:00,36.8,30.9,30.27,SE,135,0.0,0.0,79,0.00,,,-99.99,Weather View 32 v60,2013-04-26 08:25:00,
2013-04-26 04:30:00,36.7,30.8,30.27,SE,135,0.0,0.0,79,0.00,,,-99.99,Weather View 32 v60,2013-04-26 08:30:00,
2013-04-26 04:40:00,36.5,30.6,30.27,SE,135,0.0,0.0,79,0.00,,,-99.99,Weather View 32 v60,2013-04-26 08:40:00,
2013-04-26 04:45:00,36.4,30.8,30.27,ESE,113,0.0,0.0,80,0.00,,,-99.99,Weather View 32 v60,2013-04-26 08:45:00,
2013-04-26 04:55:00,36.3,30.7,30.27,East,90,0.0,1.0,80,0.00,,,-99.99,Weather View 32 v60,2013-04-26 08:55:00,
2013-04-26 05:00:00,36.3,30.7,30.27,East,90,0.0,1.0,80,0.00,,,-99.99,Weather View 32 v60,2013-04-26 09:00:00,
2013-04-26 05:10:00,36.4,31.1,30.28,ESE,113,0.0,1.0,81,0.00,,,-99.99,Weather View 32 v60,2013-04-26 09:10:00,
2013-04-26 05:20:00,36.3,31.0,30.28,ESE,113,0.0,1.0,81,0.00,,,-99.99,Weather View 32 v60,2013-04-26 09:20:00,
2013-04-26 05:30:00,36.0,31.0,30.29,NNE,23,0.0,1.0,82,0.00,,,-99.99,Weather View 32 v60,2013-04-26 09:30:00,
2013-04-26 05:40:00,35.9,31.5,30.29,SSE,158,0.0,1.0,84,0.00,,,-99.99,Weather View 32 v60,2013-04-26 09:40:00,
2013-04-26 05:50:00,35.8,31.4,30.30,SSE,158,0.0,0.0,84,0.00,,,-99.99,Weather View 32 v60,2013-04-26 09:50:00,
2013-04-26 06:00:00,35.8,31.4,30.30,SSE,158,0.0,0.0,84,0.00,,,-99.99,Weather View 32 v60,2013-04-26 10:00:00,
2013-04-26 06:10:00,35.7,31.6,30.31,SSE,158,0.0,0.0,85,0.00,,,-99.99,Weather View 32 v60,2013-04-26 10:10:00,
2013-04-26 06:15:00,35.6,31.5,30.31,SSE,158,0.0,0.0,85,0.00,,,-99.99,Weather View 32 v60,2013-04-26 10:15:00,
2013-04-26 06:25:00,35.5,31.4,30.31,SSE,158,0.0,0.0,85,0.00,,,-99.99,Weather View 32 v60,2013-04-26 10:25:00,
2013-04-26 06:35:00,35.6,31.8,30.31,SSE,158,0.0,0.0,86,0.00,,,-99.99,Weather View 32 v60,2013-04-26 10:35:00,
2013-04-26 06:45:00,35.9,32.1,30.32,SSE,158,0.0,0.0,86,0.00,,,-99.99,Weather View 32 v60,2013-04-26 10:45:00,
2013-04-26 06:55:00,36.0,32.2,30.32,SSE,158,0.0,0.0,86,0.00,,,-99.99,Weather View 32 v60,2013-04-26 10:55:00,
2013-04-26 07:00:00,36.2,32.1,30.32,SSE,158,0.0,0.0,85,0.00,,,-99.99,Weather View 32 v60,2013-04-26 11:00:00,
2013-04-26 07:10:00,36.8,33.0,30.32,SSE,158,0.0,0.0,86,0.00,,,-99.99,Weather View 32 v60,2013-04-26 11:10:00,
2013-04-26 07:15:00,37.3,33.5,30.32,SSE,158,0.0,0.0,86,0.00,,,-99.99,Weather View 32 v60,2013-04-26 11:15:00,
2013-04-26 07:25:00,38.1,34.0,30.32,SSE,158,0.0,0.0,85,0.00,,,-99.99,Weather View 32 v60,2013-04-26 11:25:00,
2013-04-26 07:35:00,39.1,35.0,30.32,SSE,158,0.0,0.0,85,0.00,,,-99.99,Weather View 32 v60,2013-04-26 11:35:00,
2013-04-26 07:40:00,39.7,35.3,30.32,SSE,158,0.0,0.0,84,0.00,,,-99.99,Weather View 32 v60,2013-04-26 11:40:00,
2013-04-26 07:50:00,41.1,36.0,30.32,South,180,0.0,0.0,82,0.00,,,-99.99,Weather View 32 v60,2013-04-26 11:50:00,
2013-04-26 08:00:00,43.0,36.9,30.32,SE,135,3.0,3.0,79,0.00,,,-99.99,Weather View 32 v60,2013-04-26 12:00:00,
2013-04-26 08:10:00,44.9,37.4,30.33,SE,135,1.0,7.0,75,0.00,,,-99.99,Weather View 32 v60,2013-04-26 12:10:00,
2013-04-26 08:15:00,45.8,37.6,30.32,ESE,113,1.0,7.0,73,0.00,,,-99.99,Weather View 32 v60,2013-04-26 12:15:00,
2013-04-26 08:25:00,47.5,37.8,30.33,NNE,23,1.0,11.0,69,0.00,,,-99.99,Weather View 32 v60,2013-04-26 12:25:00,
2013-04-26 08:30:00,48.2,37.7,30.33,NE,45,3.0,11.0,67,0.00,,,-99.99,Weather View 32 v60,2013-04-26 12:30:00,
2013-04-26 08:35:00,48.7,37.4,30.33,ESE,113,0.0,11.0,65,0.00,,,-99.99,Weather View 32 v60,2013-04-26 12:35:00,
2013-04-26 08:40:00,49.2,37.5,30.33,SSE,158,0.0,11.0,64,0.00,,,-99.99,Weather View 32 v60,2013-04-26 12:40:00,
2013-04-26 08:50:00,50.3,37.3,30.33,ENE,68,2.0,11.0,61,0.00,,,-99.99,Weather View 32 v60,2013-04-26 12:50:00,
2013-04-26 09:00:00,51.3,37.4,30.33,East,90,3.0,11.0,59,0.00,,,-99.99,Weather View 32 v60,2013-04-26 13:00:00,
2013-04-26 09:10:00,52.1,36.9,30.33,SE,135,0.0,11.0,56,0.00,,,-99.99,Weather View 32 v60,2013-04-26 13:10:00,
2013-04-26 09:20:00,53.0,36.3,30.33,SSE,158,4.0,11.0,53,0.00,,,-99.99,Weather View 32 v60,2013-04-26 13:20:00,
2013-04-26 09:25:00,53.4,36.2,30.33,SE,135,0.0,9.0,52,0.00,,,-99.99,Weather View 32 v60,2013-04-26 13:25:00,
2013-04-26 09:35:00,54.1,35.8,30.33,NE,45,0.0,8.0,50,0.00,,,-99.99,Weather View 32 v60,2013-04-26 13:35:00,
2013-04-26 09:40:00,54.5,36.2,30.34,NNE,23,0.0,9.0,50,0.00,,,-99.99,Weather View 32 v60,2013-04-26 13:40:00,
2013-04-26 09:50:00,55.4,36.5,30.34,SSE,158,3.0,9.0,49,0.00,,,-99.99,Weather View 32 v60,2013-04-26 13:50:00,
2013-04-26 10:00:00,55.8,35.8,30.34,ENE,68,1.0,9.0,47,0.00,,,-99.99,Weather View 32 v60,2013-04-26 14:00:00,
2013-04-26 10:10:00,56.4,36.4,30.33,South,180,0.0,9.0,47,0.00,,,-99.99,Weather View 32 v60,2013-04-26 14:10:00,
2013-04-26 10:15:00,56.7,36.7,30.33,SE,135,1.0,9.0,47,0.00,,,-99.99,Weather View 32 v60,2013-04-26 14:15:00,
2013-04-26 10:25:00,57.4,35.6,30.33,East,90,4.0,10.0,44,0.00,,,-99.99,Weather View 32 v60,2013-04-26 14:25:00,
2013-04-26 10:35:00,58.0,35.0,30.34,South,180,4.0,10.0,42,0.00,,,-99.99,Weather View 32 v60,2013-04-26 14:35:00,
2013-04-26 10:45:00,58.8,35.1,30.34,NNE,23,1.0,10.0,41,0.00,,,-99.99,Weather View 32 v60,2013-04-26 14:45:00,
2013-04-26 10:55:00,59.4,35.0,30.34,SE,135,3.0,10.0,40,0.00,,,-99.99,Weather View 32 v60,2013-04-26 14:55:00,
2013-04-26 11:00:00,59.6,34.6,30.34,South,180,0.0,10.0,39,0.00,,,-99.99,Weather View 32 v60,2013-04-26 15:00:00,
2013-04-26 11:05:00,59.8,34.7,30.34,East,90,0.0,11.0,39,0.00,,,-99.99,Weather View 32 v60,2013-04-26 15:05:00,
2013-04-26 11:15:00,60.5,35.4,30.34,SE,135,0.0,11.0,39,0.00,,,-99.99,Weather View 32 v60,2013-04-26 15:15:00,
2013-04-26 11:25:00,60.7,34.9,30.34,NE,45,1.0,11.0,38,0.00,,,-99.99,Weather View 32 v60,2013-04-26 15:25:00,
2013-04-26 11:35:00,61.1,35.2,30.34,East,90,4.0,11.0,38,0.00,,,-99.99,Weather View 32 v60,2013-04-26 15:35:00,
2013-04-26 11:45:00,61.6,35.7,30.34,East,90,1.0,11.0,38,0.00,,,-99.99,Weather View 32 v60,2013-04-26 15:45:00,
2013-04-26 11:55:00,61.7,35.1,30.33,South,180,0.0,11.0,37,0.00,,,-99.99,Weather View 32 v60,2013-04-26 15:55:00,
2013-04-26 12:00:00,61.9,36.0,30.33,South,180,0.0,11.0,38,0.00,,,-99.99,Weather View 32 v60,2013-04-26 16:00:00,
2013-04-26 12:05:00,62.0,35.4,30.33,South,180,6.0,13.0,37,0.00,,,-99.99,Weather View 32 v60,2013-04-26 16:05:00,
2013-04-26 12:15:00,62.2,35.5,30.33,South,180,3.0,13.0,37,0.00,,,-99.99,Weather View 32 v60,2013-04-26 16:15:00,
2013-04-26 12:25:00,62.5,37.1,30.32,South,180,2.0,13.0,39,0.00,,,-99.99,Weather View 32 v60,2013-04-26 16:25:00,
2013-04-26 12:35:00,62.5,35.8,30.32,SE,135,4.0,13.0,37,0.00,,,-99.99,Weather View 32 v60,2013-04-26 16:35:00,
2013-04-26 12:45:00,62.5,37.1,30.31,NE,45,3.0,13.0,39,0.00,,,-99.99,Weather View 32 v60,2013-04-26 16:45:00,
2013-04-26 12:55:00,62.5,36.5,30.31,ESE,113,0.0,13.0,38,0.00,,,-99.99,Weather View 32 v60,2013-04-26 16:55:00,
2013-04-26 13:00:00,62.3,36.3,30.31,East,90,0.0,13.0,38,0.00,,,-99.99,Weather View 32 v60,2013-04-26 17:00:00,
2013-04-26 13:06:00,62.3,36.3,30.31,East,90,2.0,13.0,38,0.00,,,-99.99,Weather View 32 v60,2013-04-26 17:06:00,
2013-04-26 13:15:00,62.1,36.1,30.31,South,180,4.0,14.0,38,0.00,,,-99.99,Weather View 32 v60,2013-04-26 17:15:00,
2013-04-26 13:25:00,62.1,36.1,30.30,East,90,0.0,14.0,38,0.00,,,-99.99,Weather View 32 v60,2013-04-26 17:25:00,
2013-04-26 13:35:00,62.5,36.5,30.30,South,180,4.0,14.0,38,0.00,,,-99.99,Weather View 32 v60,2013-04-26 17:35:00,
2013-04-26 13:45:00,62.8,37.4,30.30,SE,135,0.0,14.0,39,0.00,,,-99.99,Weather View 32 v60,2013-04-26 17:45:00,
2013-04-26 13:55:00,62.8,36.8,30.30,SSE,158,9.0,14.0,38,0.00,,,-99.99,Weather View 32 v60,2013-04-26 17:55:00,
2013-04-26 14:00:00,62.7,36.0,30.30,SSE,158,7.0,14.0,37,0.00,,,-99.99,Weather View 32 v60,2013-04-26 18:00:00,
2013-04-26 14:06:00,62.6,36.6,30.30,SE,135,6.0,14.0,38,0.00,,,-99.99,Weather View 32 v60,2013-04-26 18:06:00,
2013-04-26 14:15:00,62.6,36.6,30.29,South,180,0.0,14.0,38,0.00,,,-99.99,Weather View 32 v60,2013-04-26 18:15:00,
2013-04-26 14:25:00,62.6,36.6,30.29,SE,135,5.0,11.0,38,0.00,,,-99.99,Weather View 32 v60,2013-04-26 18:25:00,
2013-04-26 14:30:00,62.1,35.5,30.29,SSE,158,0.0,11.0,37,0.00,,,-99.99,Weather View 32 v60,2013-04-26 18:30:00,
2013-04-26 14:40:00,61.3,35.4,30.29,SE,135,0.0,11.0,38,0.00,,,-99.99,Weather View 32 v60,2013-04-26 18:40:00,
2013-04-26 14:45:00,61.2,35.3,30.29,ESE,113,4.0,11.0,38,0.00,,,-99.99,Weather View 32 v60,2013-04-26 18:45:00,
2013-04-26 14:55:00,60.7,35.5,30.29,ENE,68,0.0,11.0,39,0.00,,,-99.99,Weather View 32 v60,2013-04-26 18:55:00,
2013-04-26 15:05:00,61.1,35.9,30.28,ESE,113,0.0,10.0,39,0.00,,,-99.99,Weather View 32 v60,2013-04-26 19:05:00,
2013-04-26 15:10:00,61.2,36.6,30.28,SE,135,4.0,10.0,40,0.00,,,-99.99,Weather View 32 v60,2013-04-26 19:10:00,
2013-04-26 15:15:00,61.1,36.5,30.28,East,90,1.0,10.0,40,0.00,,,-99.99,Weather View 32 v60,2013-04-26 19:15:00,
2013-04-26 15:25:00,61.0,35.8,30.28,ENE,68,0.0,10.0,39,0.00,,,-99.99,Weather View 32 v60,2013-04-26 19:25:00,
2013-04-26 15:30:00,60.9,36.4,30.28,South,180,0.0,9.0,40,0.00,,,-99.99,Weather View 32 v60,2013-04-26 19:30:00,
2013-04-26 15:35:00,60.9,36.4,30.28,SSE,158,3.0,9.0,40,0.00,,,-99.99,Weather View 32 v60,2013-04-26 19:35:00,
2013-04-26 15:40:00,60.8,36.9,30.28,SSE,158,5.0,9.0,41,0.00,,,-99.99,Weather View 32 v60,2013-04-26 19:40:00,
2013-04-26 15:50:00,60.3,36.4,30.28,SSE,158,2.0,9.0,41,0.00,,,-99.99,Weather View 32 v60,2013-04-26 19:50:00,
2013-04-26 15:55:00,60.1,36.3,30.28,SSE,158,1.0,9.0,41,0.00,,,-99.99,Weather View 32 v60,2013-04-26 19:55:00,
2013-04-26 16:05:00,59.4,36.2,30.28,SSE,158,0.0,9.0,42,0.00,,,-99.99,Weather View 32 v60,2013-04-26 20:05:00,
2013-04-26 16:10:00,59.4,36.2,30.28,ESE,113,0.0,9.0,42,0.00,,,-99.99,Weather View 32 v60,2013-04-26 20:10:00,
2013-04-26 16:20:00,59.3,36.8,30.28,East,90,3.0,9.0,43,0.00,,,-99.99,Weather View 32 v60,2013-04-26 20:20:00,
2013-04-26 16:25:00,59.1,36.6,30.28,East,90,1.0,9.0,43,0.00,,,-99.99,Weather View 32 v60,2013-04-26 20:25:00,
2013-04-26 16:35:00,58.6,36.1,30.29,NE,45,1.0,9.0,43,0.00,,,-99.99,Weather View 32 v60,2013-04-26 20:35:00,
2013-04-26 16:45:00,58.1,35.1,30.29,SSE,158,3.0,12.0,42,0.00,,,-99.99,Weather View 32 v60,2013-04-26 20:45:00,
2013-04-26 16:55:00,57.7,34.7,30.29,South,180,0.0,12.0,42,0.00,,,-99.99,Weather View 32 v60,2013-04-26 20:55:00,
2013-04-26 17:00:00,57.7,34.7,30.29,SSE,158,0.0,12.0,42,0.00,,,-99.99,Weather View 32 v60,2013-04-26 21:00:00,
2013-04-26 17:08:00,57.9,35.5,30.29,South,180,0.0,12.0,43,0.00,,,-99.99,Weather View 32 v60,2013-04-26 21:08:00,
2013-04-26 17:15:00,57.8,34.8,30.29,NE,45,0.0,12.0,42,0.00,,,-99.99,Weather View 32 v60,2013-04-26 21:15:00,
2013-04-26 17:25:00,57.4,34.4,30.29,SSE,158,0.0,12.0,42,0.00,,,-99.99,Weather View 32 v60,2013-04-26 21:25:00,
2013-04-26 17:35:00,57.0,34.7,30.29,South,180,4.0,12.0,43,0.00,,,-99.99,Weather View 32 v60,2013-04-26 21:35:00,
2013-04-26 17:45:00,56.6,34.3,30.30,East,90,0.0,9.0,43,0.00,,,-99.99,Weather View 32 v60,2013-04-26 21:45:00,
2013-04-26 17:55:00,56.2,34.0,30.30,South,180,0.0,9.0,43,0.00,,,-99.99,Weather View 32 v60,2013-04-26 21:55:00,
2013-04-26 18:00:00,56.0,34.3,30.30,East,90,0.0,9.0,44,0.00,,,-99.99,Weather View 32 v60,2013-04-26 22:00:00,
2013-04-26 18:08:00,55.8,34.2,30.30,SSE,158,0.0,9.0,44,0.00,,,-99.99,Weather View 32 v60,2013-04-26 22:08:00,
2013-04-26 18:15:00,55.5,34.5,30.31,NE,45,0.0,7.0,45,0.00,,,-99.99,Weather View 32 v60,2013-04-26 22:15:00,
2013-04-26 18:25:00,55.3,35.4,30.31,East,90,0.0,7.0,47,0.00,,,-99.99,Weather View 32 v60,2013-04-26 22:25:00,
2013-04-26 18:35:00,55.0,35.6,30.31,South,180,0.0,7.0,48,0.00,,,-99.99,Weather View 32 v60,2013-04-26 22:35:00,
2013-04-26 18:40:00,54.9,35.5,30.31,South,180,1.0,7.0,48,0.00,,,-99.99,Weather View 32 v60,2013-04-26 22:40:00,
2013-04-26 18:50:00,54.5,35.7,30.31,South,180,0.0,7.0,49,0.00,,,-99.99,Weather View 32 v60,2013-04-26 22:50:00,
2013-04-26 19:00:00,53.9,36.6,30.32,East,90,1.0,7.0,52,0.00,,,-99.99,Weather View 32 v60,2013-04-26 23:00:00,
2013-04-26 19:05:00,53.7,36.5,30.32,South,180,0.0,7.0,52,0.00,,,-99.99,Weather View 32 v60,2013-04-26 23:05:00,
2013-04-26 19:10:00,53.4,36.7,30.32,ESE,113,2.0,7.0,53,0.00,,,-99.99,Weather View 32 v60,2013-04-26 23:10:00,
2013-04-26 19:19:00,53.0,36.8,30.32,SSE,158,0.0,7.0,54,0.00,,,-99.99,Weather View 32 v60,2013-04-26 23:19:00,
2013-04-26 19:25:00,52.7,36.5,30.32,SE,135,0.0,7.0,54,0.00,,,-99.99,Weather View 32 v60,2013-04-26 23:25:00,
2013-04-26 19:35:00,52.2,36.9,30.33,SSE,158,0.0,7.0,56,0.00,,,-99.99,Weather View 32 v60,2013-04-26 23:35:00,
2013-04-26 19:40:00,51.9,36.7,30.33,SSE,158,1.0,7.0,56,0.00,,,-99.99,Weather View 32 v60,2013-04-26 23:40:00,
2013-04-26 19:50:00,51.4,36.6,30.33,SSE,158,0.0,6.0,57,0.00,,,-99.99,Weather View 32 v60,2013-04-26 23:50:00,
2013-04-26 20:10:00,50.4,37.0,30.34,SSE,158,0.0,6.0,60,0.00,,,-99.99,Weather View 32 v60,2013-04-27 00:10:00,
2013-04-26 20:20:00,49.9,37.0,30.35,SSE,158,0.0,6.0,61,0.00,,,-99.99,Weather View 32 v60,2013-04-27 00:20:00,
2013-04-26 20:30:00,49.4,36.9,30.35,ESE,113,0.0,6.0,62,0.00,,,-99.99,Weather View 32 v60,2013-04-27 00:30:00,
2013-04-26 20:35:00,49.2,37.1,30.35,East,90,0.0,6.0,63,0.00,,,-99.99,Weather View 32 v60,2013-04-27 00:35:00,
2013-04-26 20:45:00,48.9,37.2,30.35,SE,135,0.0,6.0,64,0.00,,,-99.99,Weather View 32 v60,2013-04-27 00:45:00,
2013-04-26 20:55:00,48.6,37.7,30.35,ESE,113,1.0,5.0,66,0.00,,,-99.99,Weather View 32 v60,2013-04-27 00:55:00,
2013-04-26 21:05:00,48.3,37.5,30.35,East,90,0.0,3.0,66,0.00,,,-99.99,Weather View 32 v60,2013-04-27 01:05:00,
2013-04-26 21:10:00,48.2,37.7,30.35,SSE,158,0.0,4.0,67,0.00,,,-99.99,Weather View 32 v60,2013-04-27 01:10:00,
2013-04-26 21:20:00,47.9,37.8,30.35,South,180,0.0,5.0,68,0.00,,,-99.99,Weather View 32 v60,2013-04-27 01:20:00,
2013-04-26 21:25:00,47.8,37.7,30.35,South,180,1.0,5.0,68,0.00,,,-99.99,Weather View 32 v60,2013-04-27 01:25:00,
2013-04-26 21:35:00,47.6,37.9,30.35,SE,135,4.0,5.0,69,0.00,,,-99.99,Weather View 32 v60,2013-04-27 01:35:00,
2013-04-26 21:45:00,47.4,37.7,30.35,South,180,0.0,5.0,69,0.00,,,-99.99,Weather View 32 v60,2013-04-27 01:45:00,
2013-04-26 21:55:00,47.2,37.9,30.35,South,180,0.0,5.0,70,0.00,,,-99.99,Weather View 32 v60,2013-04-27 01:55:00,
2013-04-26 22:05:00,47.2,37.9,30.35,SSE,158,0.0,5.0,70,0.00,,,-99.99,Weather View 32 v60,2013-04-27 02:05:00,
2013-04-26 22:10:00,47.1,38.2,30.36,South,180,0.0,5.0,71,0.00,,,-99.99,Weather View 32 v60,2013-04-27 02:10:00,
2013-04-26 22:15:00,47.1,38.2,30.35,South,180,0.0,5.0,71,0.00,,,-99.99,Weather View 32 v60,2013-04-27 02:15:00,
2013-04-26 22:20:00,47.0,38.1,30.35,South,180,0.0,5.0,71,0.00,,,-99.99,Weather View 32 v60,2013-04-27 02:20:00,
2013-04-26 22:25:00,47.0,38.4,30.36,South,180,0.0,5.0,72,0.00,,,-99.99,Weather View 32 v60,2013-04-27 02:25:00,
2013-04-26 22:35:00,46.7,38.5,30.35,East,90,0.0,5.0,73,0.00,,,-99.99,Weather View 32 v60,2013-04-27 02:35:00,
2013-04-26 22:45:00,46.6,38.4,30.35,East,90,0.0,5.0,73,0.00,,,-99.99,Weather View 32 v60,2013-04-27 02:45:00,
2013-04-26 22:55:00,46.4,38.2,30.35,East,90,0.0,3.0,73,0.00,,,-99.99,Weather View 32 v60,2013-04-27 02:55:00,
2013-04-26 23:00:00,46.3,38.5,30.35,East,90,0.0,3.0,74,0.00,,,-99.99,Weather View 32 v60,2013-04-27 03:00:00,
2013-04-26 23:05:00,46.2,38.0,30.35,East,90,0.0,3.0,73,0.00,,,-99.99,Weather View 32 v60,2013-04-27 03:05:00,
2013-04-26 23:11:00,46.1,37.9,30.35,East,90,0.0,3.0,73,0.00,,,-99.99,Weather View 32 v60,2013-04-27 03:11:00,
2013-04-26 23:19:00,45.8,38.0,30.35,East,90,0.0,0.0,74,0.00,,,-99.99,Weather View 32 v60,2013-04-27 03:19:00,
2013-04-26 23:25:00,45.7,37.9,30.35,East,90,0.0,0.0,74,0.00,,,-99.99,Weather View 32 v60,2013-04-27 03:25:00,
2013-04-26 23:30:00,45.5,38.0,30.35,East,90,0.0,0.0,75,0.00,,,-99.99,Weather View 32 v60,2013-04-27 03:30:00,
2013-04-26 23:35:00,45.4,38.3,30.35,East,90,0.0,0.0,76,0.00,,,-99.99,Weather View 32 v60,2013-04-27 03:35:00,
2013-04-26 23:40:00,45.3,38.2,30.35,East,90,0.0,0.0,76,0.00,,,-99.99,Weather View 32 v60,2013-04-27 03:40:00,
2013-04-26 23:50:00,45.1,38.0,30.35,East,90,0.0,0.0,76,0.00,,,-99.99,Weather View 32 v60,2013-04-27 03:50:00,